Time (yr/mo/day/hr) Wind Speed at 50 metres (Glencore Tower; km/hr) Wind Direction at 50 metres (Glencore Tower; degrees) Temperature (oC) SO2 Dispersion Conditions Mixing Height (m)
2019 12 12 01 4 251 -14 Stable 58
2019 12 12 02 4 252 -14 Stable 59
2019 12 12 03 2 233 -14 Stable 50
2019 12 12 04 2 244 -14 Stable 50
2019 12 12 05 2 228 -13 Stable 50
2019 12 12 06 3 229 -13 Stable 51
2019 12 12 07 6 206 -13 Stable 69
2019 12 12 08 9 205 -13 Stable 232
2019 12 12 09 10 221 -11 Neutral 297
2019 12 12 10 9 228 -11 Neutral 434
2019 12 12 11 6 227 -10 Moderately unstable 366
2019 12 12 12 3 225 -10 Moderately unstable 349
2019 12 12 13 4 184 -9 Moderately unstable 437
2019 12 12 14 6 181 -8 Moderately unstable 485
2019 12 12 15 5 152 -7 Slightly unstable 458
2019 12 12 16 7 128 -7 Neutral 473
2019 12 12 17 10 128 -7 Neutral 344
2019 12 12 18 12 133 -7 Slightly stable 463
2019 12 12 19 14 157 -7 Neutral 595
2019 12 12 20 16 152 -7 Neutral 835
2019 12 12 21 18 151 -7 Neutral 1001
2019 12 12 22 17 162 -7 Neutral 960
2019 12 12 23 19 180 -7 Neutral 1101
2019 12 13 00 18 195 -7 Neutral 1022
2019 12 13 01 18 206 -7 Neutral 1074